| time (UTC) | temp C | wind direction | speed KPH | gust KPH | rain 1hr cm | rain 24hr cm | rain mn cm | humidity % | barometer mb |
| 20260510024514 | 15 | 342 | 4.8 | 11.3 | 0.00 | 0.00 | 0.00 | 39 | 1013.5 |
| 20260510024009 | 15 | 18 | 6.4 | 12.9 | 0.00 | 0.00 | 0.00 | 38 | 1013.5 |
| 20260510023500 | 16 | 6 | 4.8 | 9.7 | 0.00 | 0.00 | 0.00 | 37 | 1013.4 |
| 20260510022958 | 16 | 343 | 4.8 | 11.3 | 0.00 | 0.00 | 0.00 | 38 | 1013.5 |
| 20260510022457 | 16 | 23 | 16.1 | 20.9 | 0.00 | 0.00 | 0.00 | 37 | 1013.0 |
| 20260510021956 | 16 | 22 | 6.4 | 14.5 | 0.00 | 0.00 | 0.00 | 38 | 1013.1 |
| 20260510021454 | 16 | 338 | 11.3 | 14.5 | 0.00 | 0.00 | 0.00 | 37 | 1012.9 |
| 20260510020950 | 16 | 306 | 12.9 | 16.1 | 0.00 | 0.00 | 0.00 | 37 | 1012.7 |
| 20260510020445 | 16 | 342 | 12.9 | 14.5 | 0.00 | 0.00 | 0.00 | 39 | 1012.4 |
| 20260510015941 | 16 | 345 | 6.4 | 9.7 | 0.00 | 0.00 | 0.00 | 40 | 1012.4 |
| 20260510015437 | 16 | 359 | 8.0 | 9.7 | 0.00 | 0.00 | 0.00 | 40 | 1012.3 |
| 20260510014932 | 16 | 331 | 4.8 | 11.3 | 0.00 | 0.00 | 0.00 | 41 | 1012.2 |
| 20260510014430 | 16 | 358 | 6.4 | 11.3 | 0.00 | 0.00 | 0.00 | 40 | 1012.2 |
| 20260510013926 | 16 | 347 | 4.8 | 8.0 | 0.00 | 0.00 | 0.00 | 39 | 1011.9 |
| 20260510013421 | 16 | 347 | 4.8 | 9.7 | 0.00 | 0.00 | 0.00 | 39 | 1012.0 |
| 20260510012917 | 17 | 9 | 6.4 | 9.7 | 0.00 | 0.00 | 0.00 | 38 | 1011.8 |
| 20260510012412 | 17 | 351 | 6.4 | 12.9 | 0.00 | 0.00 | 0.00 | 38 | 1011.7 |
| 20260510011906 | 17 | 0 | 8.0 | 16.1 | 0.00 | 0.00 | 0.00 | 38 | 1011.5 |
| 20260510011401 | 17 | 333 | 8.0 | 9.7 | 0.00 | 0.00 | 0.00 | 38 | 1011.8 |
| 20260510010858 | 17 | 356 | 6.4 | 8.0 | 0.00 | 0.00 | 0.00 | 37 | 1011.5 |
| 20260510010350 | 18 | 344 | 4.8 | 9.7 | 0.00 | 0.00 | 0.00 | 36 | 1011.4 |
| 20260510005846 | 18 | 58 | 6.4 | 11.3 | 0.00 | 0.00 | 0.00 | 37 | 1011.5 |
| 20260510005343 | 18 | 331 | 8.0 | 14.5 | 0.00 | 0.00 | 0.00 | 36 | 1011.3 |
| 20260510004840 | 18 | 1 | 16.1 | 20.9 | 0.00 | 0.00 | 0.00 | 36 | 1011.2 |
| 20260510004338 | 18 | 1 | 8.0 | 14.5 | 0.00 | 0.00 | 0.00 | 37 | 1011.3 |
| 20260510003836 | 19 | 7 | 14.5 | 24.1 | 0.00 | 0.00 | 0.00 | 35 | 1011.2 |
| 20260510003332 | 19 | 331 | 16.1 | 25.7 | 0.00 | 0.00 | 0.00 | 35 | 1010.9 |
| 20260510002831 | 19 | 8 | 8.0 | 17.7 | 0.00 | 0.00 | 0.00 | 37 | 1010.8 |
| 20260510002328 | 20 | 357 | 6.4 | 12.9 | 0.00 | 0.00 | 0.00 | 37 | 1010.5 |
| 20260510001825 | 20 | 348 | 14.5 | 16.1 | 0.00 | 0.00 | 0.00 | 35 | 1010.6 |
| 20260510001323 | 20 | 8 | 14.5 | 20.9 | 0.00 | 0.00 | 0.00 | 36 | 1010.6 |
| 20260510000819 | 20 | 10 | 8.0 | 12.9 | 0.00 | 0.00 | 0.00 | 36 | 1010.5 |
| 20260510000318 | 20 | 3 | 11.3 | 12.9 | 0.00 | 0.00 | 0.00 | 36 | 1010.5 |
| 20260509235813 | 20 | 25 | 8.0 | 16.1 | 0.00 | 0.00 | 0.00 | 36 | 1010.5 |
| 20260509235310 | 20 | 26 | 12.9 | 24.1 | 0.00 | 0.00 | 0.00 | 36 | 1010.2 |
| 20260509234805 | 20 | 341 | 8.0 | 14.5 | 0.00 | 0.00 | 0.00 | 35 | 1010.4 |
| 20260509234302 | 20 | 343 | 11.3 | 16.1 | 0.00 | 0.00 | 0.00 | 36 | 1010.4 |
| 20260509233801 | 20 | 37 | 12.9 | 17.7 | 0.00 | 0.00 | 0.00 | 35 | 1010.2 |
| 20260509233258 | 20 | 15 | 8.0 | 12.9 | 0.00 | 0.00 | 0.00 | 39 | 1010.4 |
| 20260509232754 | 20 | 346 | 9.7 | 17.7 | 0.00 | 0.00 | 0.00 | 38 | 1010.2 |
| 20260509232251 | 20 | 349 | 11.3 | 17.7 | 0.00 | 0.00 | 0.00 | 40 | 1010.2 |
| 20260509231747 | 20 | 353 | 8.0 | 11.3 | 0.00 | 0.00 | 0.00 | 41 | 1010.0 |
| 20260509231244 | 20 | 43 | 4.8 | 16.1 | 0.00 | 0.00 | 0.00 | 41 | 1010.2 |
| 20260509230742 | 20 | 36 | 4.8 | 12.9 | 0.00 | 0.00 | 0.00 | 43 | 1009.9 |
| 20260509230239 | 20 | 36 | 12.9 | 17.7 | 0.00 | 0.00 | 0.00 | 43 | 1009.9 |
| 20260509225734 | 20 | 354 | 14.5 | 16.1 | 0.00 | 0.00 | 0.00 | 44 | 1009.8 |
| 20260509225230 | 20 | 339 | 8.0 | 16.1 | 0.00 | 0.00 | 0.00 | 45 | 1009.7 |
| 20260509224726 | 20 | 30 | 6.4 | 17.7 | 0.00 | 0.00 | 0.00 | 44 | 1009.6 |
| 20260509224224 | 20 | 278 | 11.3 | 14.5 | 0.00 | 0.00 | 0.00 | 42 | 1009.2 |
| 20260509223720 | 20 | 23 | 9.7 | 17.7 | 0.00 | 0.00 | 0.00 | 45 | 1009.5 |
| 20260509223217 | 20 | 343 | 6.4 | 16.1 | 0.00 | 0.00 | 0.00 | 46 | 1009.5 |
| 20260509222714 | 20 | 328 | 8.0 | 12.9 | 0.00 | 0.00 | 0.00 | 48 | 1009.3 |
| 20260509222209 | 20 | 322 | 11.3 | 12.9 | 0.00 | 0.00 | 0.00 | 47 | 1009.4 |
| 20260509221705 | 20 | 9 | 3.2 | 12.9 | 0.00 | 0.00 | 0.00 | 49 | 1009.2 |
| 20260509221202 | 20 | 36 | 9.7 | 14.5 | 0.00 | 0.00 | 0.00 | 48 | 1009.1 |
| 20260509220657 | 20 | 358 | 8.0 | 16.1 | 0.00 | 0.00 | 0.00 | 48 | 1009.3 |
| 20260509220154 | 21 | 344 | 25.7 | 32.2 | 0.00 | 0.00 | 0.00 | 46 | 1009.3 |
| 20260509215650 | 21 | 327 | 9.7 | 16.1 | 0.00 | 0.00 | 0.00 | 47 | 1009.4 |
| 20260509215147 | 21 | 335 | 14.5 | 20.9 | 0.00 | 0.00 | 0.00 | 48 | 1009.3 |
| 20260509214644 | 21 | 43 | 12.9 | 24.1 | 0.00 | 0.00 | 0.00 | 47 | 1009.2 |
| 20260509214140 | 21 | 41 | 9.7 | 16.1 | 0.00 | 0.00 | 0.00 | 47 | 1009.0 |
| 20260509213637 | 21 | 19 | 9.7 | 20.9 | 0.00 | 0.00 | 0.00 | 48 | 1009.0 |
| 20260509213133 | 20 | 351 | 12.9 | 25.7 | 0.00 | 0.00 | 0.00 | 48 | 1009.1 |
| 20260509212631 | 20 | 335 | 16.1 | 24.1 | 0.00 | 0.00 | 0.00 | 47 | 1009.2 |
| 20260509212127 | 20 | 59 | 9.7 | 27.4 | 0.00 | 0.00 | 0.00 | 47 | 1009.2 |
| 20260509211624 | 21 | 25 | 17.7 | 25.7 | 0.00 | 0.00 | 0.00 | 47 | 1009.0 |
| 20260509211120 | 21 | 22 | 11.3 | 14.5 | 0.00 | 0.00 | 0.00 | 47 | 1009.0 |
| 20260509210617 | 21 | 32 | 8.0 | 24.1 | 0.00 | 0.00 | 0.00 | 46 | 1009.0 |
| 20260509210114 | 21 | 9 | 16.1 | 29.0 | 0.00 | 0.00 | 0.00 | 46 | 1009.0 |
| 20260509205608 | 21 | 332 | 12.9 | 27.4 | 0.00 | 0.00 | 0.00 | 45 | 1008.8 |
| 20260509205103 | 21 | 335 | 24.1 | 27.4 | 0.00 | 0.00 | 0.00 | 44 | 1009.0 |
| 20260509204600 | 21 | 24 | 8.0 | 22.5 | 0.00 | 0.00 | 0.00 | 44 | 1008.9 |
| 20260509204057 | 21 | 49 | 14.5 | 16.1 | 0.00 | 0.00 | 0.00 | 44 | 1009.0 |
| 20260509203552 | 21 | 4 | 14.5 | 22.5 | 0.00 | 0.00 | 0.00 | 43 | 1008.9 |
| 20260509203051 | 21 | 356 | 9.7 | 14.5 | 0.00 | 0.00 | 0.00 | 40 | 1008.9 |
| 20260509202545 | 21 | 323 | 4.8 | 12.9 | 0.00 | 0.00 | 0.00 | 40 | 1009.0 |
| 20260509202041 | 22 | 319 | 11.3 | 16.1 | 0.00 | 0.00 | 0.00 | 38 | 1008.8 |
| 20260509201536 | 22 | 296 | 11.3 | 14.5 | 0.00 | 0.00 | 0.00 | 36 | 1008.8 |
| 20260509201034 | 22 | 358 | 14.5 | 17.7 | 0.00 | 0.00 | 0.00 | 35 | 1008.7 |
| 20260509200533 | 22 | 283 | 4.8 | 20.9 | 0.00 | 0.00 | 0.00 | 35 | 1008.9 |
| 20260509200030 | 22 | 20 | 17.7 | 22.5 | 0.00 | 0.00 | 0.00 | 34 | 1008.8 |
| 20260509195525 | 22 | 313 | 11.3 | 16.1 | 0.00 | 0.00 | 0.00 | 34 | 1008.8 |
| 20260509195020 | 22 | 354 | 16.1 | 17.7 | 0.00 | 0.00 | 0.00 | 34 | 1008.6 |
| 20260509194515 | 22 | 315 | 8.0 | 20.9 | 0.00 | 0.00 | 0.00 | 35 | 1008.7 |
| 20260509194013 | 21 | 287 | 4.8 | 12.9 | 0.00 | 0.00 | 0.00 | 33 | 1008.6 |
| 20260509193513 | 21 | 14 | 12.9 | 17.7 | 0.00 | 0.00 | 0.00 | 33 | 1008.6 |
| 20260509193010 | 21 | 292 | 8.0 | 16.1 | 0.00 | 0.00 | 0.00 | 34 | 1008.7 |
| 20260509192506 | 22 | 38 | 6.4 | 17.7 | 0.00 | 0.00 | 0.00 | 34 | 1008.6 |
| 20260509192001 | 22 | 313 | 14.5 | 22.5 | 0.00 | 0.00 | 0.00 | 33 | 1008.5 |
| 20260509191456 | 22 | 319 | 6.4 | 9.7 | 0.00 | 0.00 | 0.00 | 34 | 1008.2 |
| 20260509190952 | 22 | 351 | 8.0 | 12.9 | 0.00 | 0.00 | 0.00 | 33 | 1008.4 |
| 20260509190449 | 22 | 324 | 12.9 | 16.1 | 0.00 | 0.00 | 0.00 | 31 | 1008.1 |
| 20260509185947 | 22 | 13 | 4.8 | 12.9 | 0.00 | 0.00 | 0.00 | 32 | 1008.3 |
| 20260509185444 | 22 | 12 | 1.6 | 17.7 | 0.00 | 0.00 | 0.00 | 33 | 1008.2 |
| 20260509184941 | 22 | 299 | 6.4 | 16.1 | 0.00 | 0.00 | 0.00 | 31 | 1008.1 |
| 20260509184439 | 22 | 24 | 6.4 | 11.3 | 0.00 | 0.00 | 0.00 | 31 | 1008.2 |
| 20260509183935 | 23 | 295 | 9.7 | 11.3 | 0.00 | 0.00 | 0.00 | 30 | 1008.2 |
| 20260509183434 | 23 | 339 | 9.7 | 20.9 | 0.00 | 0.00 | 0.00 | 30 | 1008.2 |
| 20260509182931 | 23 | 344 | 11.3 | 20.9 | 0.00 | 0.00 | 0.00 | 30 | 1008.0 |
| 20260509182427 | 23 | 290 | 8.0 | 14.5 | 0.00 | 0.00 | 0.00 | 32 | 1008.0 |
| 20260509181925 | 23 | 281 | 6.4 | 11.3 | 0.00 | 0.00 | 0.00 | 30 | 1008.1 |
| 20260509181423 | 22 | 338 | 9.7 | 12.9 | 0.00 | 0.00 | 0.00 | 31 | 1007.8 |
| 20260509180920 | 22 | 259 | 6.4 | 16.1 | 0.00 | 0.00 | 0.00 | 30 | 1007.9 |
| 20260509180415 | 22 | 35 | 9.7 | 14.5 | 0.00 | 0.00 | 0.00 | 31 | 1007.8 |
| 20260509175912 | 23 | 304 | 12.9 | 20.9 | 0.00 | 0.00 | 0.00 | 31 | 1007.8 |
| 20260509175408 | 23 | 321 | 12.9 | 17.7 | 0.00 | 0.00 | 0.00 | 30 | 1007.9 |
| 20260509174905 | 23 | 348 | 17.7 | 20.9 | 0.00 | 0.00 | 0.00 | 30 | 1007.8 |
| 20260509174401 | 22 | 16 | 4.8 | 14.5 | 0.00 | 0.00 | 0.00 | 31 | 1007.6 |
| 20260509173857 | 22 | 3 | 11.3 | 20.9 | 0.00 | 0.00 | 0.00 | 32 | 1007.6 |
| 20260509173352 | 22 | 28 | 3.2 | 17.7 | 0.00 | 0.00 | 0.00 | 31 | 1007.8 |
| 20260509172849 | 22 | 333 | 8.0 | 16.1 | 0.00 | 0.00 | 0.00 | 32 | 1007.9 |
| 20260509172346 | 23 | 353 | 8.0 | 17.7 | 0.00 | 0.00 | 0.00 | 31 | 1007.9 |
| 20260509171841 | 22 | 296 | 3.2 | 11.3 | 0.00 | 0.00 | 0.00 | 34 | 1007.7 |
| 20260509171337 | 22 | 302 | 4.8 | 4.8 | 0.00 | 0.00 | 0.00 | 31 | 1007.8 |
| 20260509170833 | 22 | 31 | 6.4 | 9.7 | 0.00 | 0.00 | 0.00 | 33 | 1008.0 |
| 20260509170329 | 22 | 269 | 4.8 | 9.7 | 0.00 | 0.00 | 0.00 | 32 | 1007.9 |
| 20260509165824 | 21 | 312 | 3.2 | 11.3 | 0.00 | 0.00 | 0.00 | 34 | 1008.0 |
| 20260509165319 | 22 | 333 | 6.4 | 11.3 | 0.00 | 0.00 | 0.00 | 33 | 1008.2 |
| 20260509164815 | 21 | 32 | 8.0 | 17.7 | 0.00 | 0.00 | 0.00 | 34 | 1008.2 |
| 20260509164312 | 21 | 345 | 9.7 | 16.1 | 0.00 | 0.00 | 0.00 | 31 | 1008.4 |
| 20260509163808 | 22 | 324 | 8.0 | 9.7 | 0.00 | 0.00 | 0.00 | 32 | 1008.3 |
| 20260509163304 | 21 | 13 | 12.9 | 22.5 | 0.00 | 0.00 | 0.00 | 33 | 1008.3 |
| 20260509162803 | 21 | 259 | 14.5 | 22.5 | 0.00 | 0.00 | 0.00 | 32 | 1008.3 |
| 20260509162256 | 21 | 315 | 4.8 | 12.9 | 0.00 | 0.00 | 0.00 | 33 | 1008.3 |
| 20260509161753 | 21 | 45 | 11.3 | 24.1 | 0.00 | 0.00 | 0.00 | 33 | 1008.1 |
| 20260509161249 | 21 | 338 | 6.4 | 20.9 | 0.00 | 0.00 | 0.00 | 35 | 1008.0 |
| 20260509160744 | 20 | 332 | 12.9 | 22.5 | 0.00 | 0.00 | 0.00 | 33 | 1008.0 |
| 20260509160241 | 20 | 26 | 12.9 | 25.7 | 0.00 | 0.00 | 0.00 | 34 | 1008.2 |
| 20260509155736 | 20 | 316 | 12.9 | 25.7 | 0.00 | 0.00 | 0.00 | 34 | 1008.1 |
| 20260509155228 | 20 | 313 | 11.3 | 25.7 | 0.00 | 0.00 | 0.00 | 35 | 1008.0 |
| 20260509154724 | 20 | 326 | 8.0 | 24.1 | 0.00 | 0.00 | 0.00 | 34 | 1008.1 |
| 20260509154221 | 20 | 295 | 11.3 | 14.5 | 0.00 | 0.00 | 0.00 | 34 | 1008.0 |
| 20260509153718 | 20 | 330 | 14.5 | 24.1 | 0.00 | 0.00 | 0.00 | 37 | 1008.1 |
| 20260509153214 | 20 | 330 | 9.7 | 20.9 | 0.00 | 0.00 | 0.00 | 38 | 1008.0 |
| 20260509152710 | 20 | 20 | 9.7 | 20.9 | 0.00 | 0.00 | 0.00 | 40 | 1007.9 |
| 20260509152207 | 20 | 20 | 19.3 | 35.4 | 0.00 | 0.00 | 0.00 | 39 | 1007.9 |
| 20260509151704 | 20 | 314 | 16.1 | 32.2 | 0.00 | 0.00 | 0.00 | 40 | 1007.6 |
| 20260509151201 | 21 | 350 | 17.7 | 25.7 | 0.00 | 0.00 | 0.00 | 38 | 1007.5 |
| 20260509150658 | 22 | 305 | 8.0 | 12.9 | 0.00 | 0.00 | 0.00 | 35 | 1007.4 |
| 20260509150157 | 21 | 341 | 19.3 | 24.1 | 0.00 | 0.00 | 0.00 | 33 | 1006.9 |
| 20260509145652 | 21 | 264 | 12.9 | 16.1 | 0.00 | 0.00 | 0.00 | 35 | 1006.7 |
| 20260509145148 | 21 | 236 | 4.8 | 12.9 | 0.00 | 0.00 | 0.00 | 34 | 1006.7 |
| 20260509144644 | 21 | 311 | 3.2 | 11.3 | 0.00 | 0.00 | 0.00 | 41 | 1006.6 |
| 20260509144141 | 20 | 280 | 0.0 | 4.8 | 0.00 | 0.00 | 0.00 | 42 | 1006.7 |
| 20260509143639 | 20 | 258 | 3.2 | 9.7 | 0.00 | 0.00 | 0.00 | 41 | 1006.9 |
| 20260509143136 | 20 | 262 | 4.8 | 11.3 | 0.00 | 0.00 | 0.00 | 42 | 1007.1 |
| 20260509142631 | 20 | 258 | 6.4 | 9.7 | 0.00 | 0.00 | 0.00 | 41 | 1007.0 |
| 20260509142128 | 20 | 281 | 1.6 | 4.8 | 0.00 | 0.00 | 0.00 | 42 | 1006.9 |
| 20260509141624 | 20 | 289 | 1.6 | 4.8 | 0.00 | 0.00 | 0.00 | 44 | 1006.9 |
| 20260509141120 | 19 | 227 | 1.6 | 11.3 | 0.00 | 0.00 | 0.00 | 44 | 1007.1 |
| 20260509140617 | 18 | 246 | 4.8 | 9.7 | 0.00 | 0.00 | 0.00 | 44 | 1007.1 |
| 20260509140115 | 18 | 278 | 3.2 | 8.0 | 0.00 | 0.00 | 0.00 | 49 | 1006.9 |
| 20260509135612 | 17 | 260 | 4.8 | 9.7 | 0.00 | 0.00 | 0.00 | 52 | 1007.0 |
| 20260509135111 | 17 | 273 | 1.6 | 8.0 | 0.00 | 0.00 | 0.00 | 56 | 1007.0 |
| 20260509134607 | 16 | 243 | 1.6 | 4.8 | 0.00 | 0.00 | 0.00 | 65 | 1006.8 |
| 20260509134104 | 15 | 223 | 3.2 | 4.8 | 0.00 | 0.00 | 0.00 | 67 | 1006.7 |
| 20260509133601 | 15 | 226 | 4.8 | 4.8 | 0.00 | 0.00 | 0.00 | 68 | 1006.8 |
| 20260509133059 | 15 | 234 | 1.6 | 4.8 | 0.00 | 0.00 | 0.00 | 68 | 1006.6 |
| 20260509132557 | 14 | 268 | 1.6 | 4.8 | 0.00 | 0.00 | 0.00 | 69 | 1006.7 |
| 20260509132055 | 14 | 202 | 6.4 | 8.0 | 0.00 | 0.00 | 0.00 | 69 | 1006.7 |
| 20260509131551 | 13 | 210 | 6.4 | 9.7 | 0.00 | 0.00 | 0.00 | 69 | 1006.7 |
| 20260509131048 | 13 | 218 | 6.4 | 8.0 | 0.00 | 0.00 | 0.00 | 70 | 1006.8 |
| 20260509130543 | 13 | 224 | 6.4 | 8.0 | 0.00 | 0.00 | 0.00 | 70 | 1006.8 |
| 20260509130041 | 13 | 210 | 4.8 | 4.8 | 0.00 | 0.00 | 0.00 | 69 | 1006.9 |
| 20260509125537 | 12 | 266 | 1.6 | 3.2 | 0.00 | 0.00 | 0.00 | 71 | 1006.8 |
| 20260509125033 | 12 | 256 | 1.6 | 4.8 | 0.00 | 0.00 | 0.00 | 71 | 1006.7 |
| 20260509124530 | 12 | 259 | 3.2 | 3.2 | 0.00 | 0.00 | 0.00 | 73 | 1006.6 |
| 20260509124027 | 11 | 249 | 1.6 | 3.2 | 0.00 | 0.00 | 0.00 | 75 | 1006.6 |
| 20260509123525 | 11 | 302 | 0.0 | 3.2 | 0.00 | 0.00 | 0.00 | 76 | 1006.9 |
| 20260509123016 | 11 | 269 | 0.0 | 1.6 | 0.00 | 0.00 | 0.00 | 77 | 1006.8 |
| 20260509122513 | 10 | 236 | 1.6 | 4.8 | 0.00 | 0.00 | 0.00 | 78 | 1006.8 |
| 20260509122009 | 11 | 231 | 3.2 | 3.2 | 0.00 | 0.00 | 0.00 | 80 | 1006.3 |
| 20260509121506 | 11 | 224 | 3.2 | 3.2 | 0.00 | 0.00 | 0.00 | 73 | 1006.3 |
| 20260509121004 | 11 | 243 | 1.6 | 3.2 | 0.00 | 0.00 | 0.00 | 75 | 1006.2 |
| 20260509120502 | 10 | 252 | 3.2 | 3.2 | 0.00 | 0.00 | 0.00 | 76 | 1006.2 |
| 20260509120000 | 10 | 259 | 1.6 | 3.2 | 0.00 | 0.00 | 0.00 | 77 | 1006.3 |
| 20260509115456 | 10 | 243 | 3.2 | 4.8 | 0.00 | 0.00 | 0.00 | 78 | 1006.2 |
| 20260509114954 | 10 | 249 | 4.8 | 8.0 | 0.00 | 0.00 | 0.00 | 78 | 1006.1 |
| 20260509114452 | 10 | 251 | 3.2 | 4.8 | 0.00 | 0.00 | 0.00 | 78 | 1006.0 |
| 20260509113951 | 10 | 280 | 1.6 | 1.6 | 0.00 | 0.00 | 0.00 | 80 | 1005.8 |
| 20260509113448 | 9 | 281 | 0.0 | 1.6 | 0.00 | 0.00 | 0.00 | 81 | 1005.8 |
| 20260509112945 | 9 | 275 | 0.0 | 0.0 | 0.00 | 0.00 | 0.00 | 83 | 1005.8 |
| 20260509112443 | 9 | 275 | 0.0 | 1.6 | 0.00 | 0.00 | 0.00 | 84 | 1005.8 |
| 20260509111939 | 9 | 274 | 1.6 | 3.2 | 0.00 | 0.00 | 0.00 | 84 | 1005.9 |
| 20260509111437 | 9 | 286 | 1.6 | 3.2 | 0.00 | 0.00 | 0.00 | 84 | 1006.0 |
| 20260509110934 | 9 | 299 | 3.2 | 4.8 | 0.00 | 0.00 | 0.00 | 85 | 1005.9 |
| 20260509110429 | 9 | 292 | 3.2 | 3.2 | 0.00 | 0.00 | 0.00 | 85 | 1005.9 |
| 20260509105928 | 9 | 270 | 1.6 | 3.2 | 0.00 | 0.00 | 0.00 | 86 | 1005.6 |
| 20260509105426 | 9 | 292 | 4.8 | 4.8 | 0.00 | 0.00 | 0.00 | 87 | 1005.8 |
| 20260509104923 | 9 | 298 | 3.2 | 9.7 | 0.00 | 0.00 | 0.00 | 87 | 1005.9 |
| 20260509104420 | 9 | 290 | 4.8 | 8.0 | 0.00 | 0.00 | 0.00 | 86 | 1005.7 |
| 20260509103917 | 9 | 293 | 4.8 | 4.8 | 0.00 | 0.00 | 0.00 | 86 | 1005.9 |
| 20260509103414 | 9 | 293 | 3.2 | 4.8 | 0.00 | 0.00 | 0.00 | 86 | 1005.7 |
| 20260509102913 | 9 | 301 | 1.6 | 3.2 | 0.00 | 0.00 | 0.00 | 87 | 1005.6 |
| 20260509102410 | 10 | 233 | 3.2 | 4.8 | 0.00 | 0.00 | 0.00 | 86 | 1005.2 |
| 20260509101905 | 10 | 275 | 1.6 | 3.2 | 0.00 | 0.00 | 0.00 | 85 | 1005.2 |
| 20260509101401 | 10 | 277 | 0.0 | 1.6 | 0.00 | 0.00 | 0.00 | 85 | 1005.3 |
| 20260509100900 | 10 | 277 | 0.0 | 0.0 | 0.00 | 0.00 | 0.00 | 85 | 1005.4 |
| 20260509100356 | 10 | 277 | 0.0 | 1.6 | 0.00 | 0.00 | 0.00 | 85 | 1005.4 |
| 20260509095853 | 10 | 277 | 0.0 | 1.6 | 0.00 | 0.00 | 0.00 | 85 | 1005.5 |
| 20260509095351 | 10 | 278 | 1.6 | 3.2 | 0.00 | 0.00 | 0.00 | 85 | 1005.7 |
| 20260509094847 | 10 | 276 | 0.0 | 1.6 | 0.00 | 0.00 | 0.00 | 86 | 1005.5 |
| 20260509094344 | 10 | 275 | 0.0 | 1.6 | 0.00 | 0.00 | 0.00 | 85 | 1005.5 |
| 20260509093842 | 10 | 275 | 1.6 | 1.6 | 0.00 | 0.00 | 0.00 | 85 | 1005.8 |
| 20260509093338 | 10 | 280 | 0.0 | 0.0 | 0.00 | 0.00 | 0.00 | 85 | 1005.4 |
| 20260509092837 | 10 | 281 | 0.0 | 1.6 | 0.00 | 0.00 | 0.00 | 85 | 1005.5 |
| 20260509092335 | 10 | 285 | 0.0 | 3.2 | 0.00 | 0.00 | 0.00 | 86 | 1005.4 |
| 20260509091832 | 11 | 284 | 1.6 | 3.2 | 0.00 | 0.00 | 0.00 | 85 | 1005.4 |
| 20260509091329 | 11 | 292 | 1.6 | 1.6 | 0.00 | 0.00 | 0.00 | 86 | 1005.3 |
| 20260509090826 | 11 | 286 | 0.0 | 1.6 | 0.00 | 0.00 | 0.00 | 86 | 1005.4 |
| 20260509090324 | 11 | 290 | 1.6 | 3.2 | 0.00 | 0.00 | 0.00 | 85 | 1005.4 |
| 20260509085821 | 11 | 281 | 1.6 | 4.8 | 0.00 | 0.00 | 0.00 | 85 | 1005.5 |
| 20260509085318 | 11 | 296 | 1.6 | 4.8 | 0.00 | 0.00 | 0.00 | 85 | 1005.3 |
| 20260509084814 | 11 | 291 | 3.2 | 8.0 | 0.00 | 0.00 | 0.00 | 85 | 1005.5 |
| 20260509084311 | 11 | 275 | 3.2 | 8.0 | 0.00 | 0.00 | 0.00 | 84 | 1005.5 |
| 20260509083809 | 11 | 303 | 1.6 | 4.8 | 0.00 | 0.00 | 0.00 | 85 | 1005.5 |
| 20260509083306 | 11 | 297 | 3.2 | 4.8 | 0.00 | 0.00 | 0.00 | 84 | 1005.4 |
| 20260509082803 | 12 | 335 | 0.0 | 3.2 | 0.00 | 0.00 | 0.00 | 83 | 1005.3 |
| 20260509082259 | 11 | 264 | 3.2 | 3.2 | 0.00 | 0.00 | 0.00 | 83 | 1005.3 |
| 20260509081756 | 11 | 284 | 6.4 | 8.0 | 0.00 | 0.00 | 0.00 | 84 | 1005.3 |
| 20260509081253 | 11 | 296 | 1.6 | 3.2 | 0.00 | 0.00 | 0.00 | 84 | 1005.4 |
| 20260509080752 | 12 | 281 | 0.0 | 3.2 | 0.00 | 0.00 | 0.00 | 83 | 1005.4 |
| 20260509080249 | 12 | 302 | 1.6 | 3.2 | 0.00 | 0.00 | 0.00 | 83 | 1005.4 |
| 20260509075747 | 12 | 271 | 1.6 | 3.2 | 0.00 | 0.00 | 0.00 | 83 | 1005.4 |
| 20260509075244 | 11 | 283 | 1.6 | 3.2 | 0.00 | 0.00 | 0.00 | 84 | 1005.3 |
| 20260509074741 | 11 | 275 | 0.0 | 3.2 | 0.00 | 0.00 | 0.00 | 84 | 1005.3 |
| 20260509074239 | 12 | 284 | 0.0 | 1.6 | 0.00 | 0.00 | 0.00 | 84 | 1005.4 |
| 20260509073735 | 12 | 280 | 0.0 | 3.2 | 0.00 | 0.00 | 0.00 | 84 | 1005.3 |
| 20260509073231 | 12 | 231 | 1.6 | 3.2 | 0.00 | 0.00 | 0.00 | 84 | 1005.4 |
| 20260509072728 | 11 | 245 | 3.2 | 3.2 | 0.00 | 0.00 | 0.00 | 84 | 1005.5 |
| 20260509072225 | 12 | 237 | 1.6 | 4.8 | 0.00 | 0.00 | 0.00 | 84 | 1005.5 |
| 20260509071721 | 12 | 228 | 3.2 | 4.8 | 0.00 | 0.00 | 0.00 | 82 | 1005.4 |
| 20260509071219 | 12 | 212 | 4.8 | 4.8 | 0.00 | 0.00 | 0.00 | 82 | 1005.6 |
| 20260509070715 | 12 | 244 | 3.2 | 4.8 | 0.00 | 0.00 | 0.00 | 82 | 1005.7 |
| 20260509070212 | 12 | 261 | 1.6 | 8.0 | 0.00 | 0.00 | 0.00 | 81 | 1005.6 |
| 20260509065708 | 13 | 270 | 1.6 | 4.8 | 0.00 | 0.00 | 0.00 | 81 | 1005.8 |
| 20260509065204 | 13 | 239 | 4.8 | 8.0 | 0.00 | 0.00 | 0.00 | 80 | 1005.8 |
| 20260509064701 | 13 | 243 | 1.6 | 9.7 | 0.00 | 0.00 | 0.00 | 80 | 1005.7 |
| 20260509064159 | 13 | 244 | 4.8 | 8.0 | 0.00 | 0.00 | 0.00 | 81 | 1005.7 |
| 20260509063656 | 13 | 289 | 1.6 | 4.8 | 0.00 | 0.00 | 0.00 | 81 | 1005.9 |
| 20260509063152 | 12 | 254 | 4.8 | 4.8 | 0.00 | 0.00 | 0.00 | 82 | 1006.0 |
| 20260509062649 | 13 | 238 | 3.2 | 4.8 | 0.00 | 0.00 | 0.00 | 82 | 1005.8 |
| 20260509062146 | 12 | 223 | 4.8 | 8.0 | 0.00 | 0.00 | 0.00 | 84 | 1005.9 |
| 20260509061643 | 12 | 270 | 1.6 | 4.8 | 0.00 | 0.00 | 0.00 | 84 | 1005.8 |
| 20260509061141 | 12 | 295 | 1.6 | 4.8 | 0.00 | 0.00 | 0.00 | 84 | 1005.9 |
| 20260509060638 | 12 | 223 | 3.2 | 4.8 | 0.00 | 0.00 | 0.00 | 85 | 1005.6 |
| 20260509060134 | 12 | 264 | 3.2 | 3.2 | 0.00 | 0.00 | 0.00 | 86 | 1005.7 |
| 20260509055630 | 12 | 226 | 4.8 | 8.0 | 0.00 | 0.00 | 0.00 | 86 | 1005.6 |
| 20260509055126 | 12 | 237 | 3.2 | 3.2 | 0.00 | 0.00 | 0.00 | 86 | 1005.5 |
| 20260509054623 | 12 | 250 | 1.6 | 3.2 | 0.00 | 0.00 | 0.00 | 86 | 1005.6 |
| 20260509054120 | 12 | 272 | 1.6 | 3.2 | 0.00 | 0.00 | 0.00 | 86 | 1005.5 |
| 20260509053619 | 12 | 226 | 3.2 | 4.8 | 0.00 | 0.00 | 0.00 | 86 | 1005.6 |
| 20260509053115 | 12 | 233 | 3.2 | 4.8 | 0.00 | 0.00 | 0.00 | 86 | 1005.5 |
| 20260509052613 | 12 | 225 | 4.8 | 8.0 | 0.00 | 0.00 | 0.00 | 85 | 1005.4 |
| 20260509052111 | 13 | 215 | 6.4 | 8.0 | 0.00 | 0.00 | 0.00 | 85 | 1005.5 |
| 20260509051608 | 13 | 225 | 4.8 | 4.8 | 0.00 | 0.00 | 0.00 | 84 | 1005.7 |
| 20260509051105 | 13 | 216 | 4.8 | 8.0 | 0.00 | 0.00 | 0.00 | 84 | 1005.4 |
| 20260509050602 | 13 | 260 | 4.8 | 8.0 | 0.00 | 0.00 | 0.00 | 84 | 1005.7 |
| 20260509050058 | 13 | 237 | 4.8 | 8.0 | 0.00 | 0.00 | 0.00 | 83 | 1005.7 |
| 20260509045556 | 13 | 214 | 4.8 | 9.7 | 0.00 | 0.00 | 0.00 | 83 | 1005.7 |
| 20260509045053 | 13 | 220 | 8.0 | 9.7 | 0.00 | 0.00 | 0.00 | 82 | 1005.7 |
| 20260509044550 | 14 | 219 | 6.4 | 11.3 | 0.00 | 0.00 | 0.00 | 81 | 1005.7 |
| 20260509044047 | 14 | 209 | 6.4 | 11.3 | 0.00 | 0.00 | 0.00 | 81 | 1005.6 |
| 20260509043544 | 14 | 188 | 8.0 | 12.9 | 0.00 | 0.00 | 0.00 | 80 | 1005.5 |
| 20260509043039 | 14 | 199 | 8.0 | 12.9 | 0.00 | 0.00 | 0.00 | 80 | 1005.5 |
| 20260509042536 | 15 | 212 | 8.0 | 11.3 | 0.00 | 0.00 | 0.00 | 79 | 1005.5 |
| 20260509042032 | 15 | 209 | 8.0 | 11.3 | 0.00 | 0.00 | 0.00 | 79 | 1005.6 |
| 20260509041529 | 15 | 212 | 6.4 | 14.5 | 0.00 | 0.00 | 0.00 | 79 | 1005.6 |
| 20260509041027 | 15 | 214 | 8.0 | 12.9 | 0.00 | 0.00 | 0.00 | 78 | 1005.8 |
| 20260509040525 | 15 | 220 | 9.7 | 14.5 | 0.00 | 0.00 | 0.00 | 78 | 1005.8 |
| 20260509040022 | 15 | 218 | 8.0 | 12.9 | 0.00 | 0.00 | 0.00 | 78 | 1005.7 |
| 20260509035518 | 15 | 206 | 8.0 | 11.3 | 0.00 | 0.00 | 0.00 | 77 | 1005.9 |
| 20260509035014 | 15 | 209 | 9.7 | 12.9 | 0.00 | 0.00 | 0.00 | 77 | 1005.7 |
| 20260509034513 | 15 | 223 | 8.0 | 11.3 | 0.00 | 0.00 | 0.00 | 76 | 1005.9 |
| 20260509034009 | 15 | 228 | 6.4 | 12.9 | 0.00 | 0.00 | 0.00 | 76 | 1005.8 |
| 20260509033506 | 15 | 215 | 9.7 | 11.3 | 0.00 | 0.00 | 0.00 | 75 | 1005.7 |
| 20260509033003 | 16 | 229 | 8.0 | 14.5 | 0.00 | 0.00 | 0.00 | 75 | 1005.9 |
| 20260509032500 | 16 | 218 | 9.7 | 12.9 | 0.00 | 0.00 | 0.00 | 74 | 1005.9 |
| 20260509031958 | 16 | 219 | 11.3 | 12.9 | 0.00 | 0.00 | 0.00 | 73 | 1005.9 |
| 20260509031455 | 16 | 215 | 11.3 | 12.9 | 0.00 | 0.00 | 0.00 | 72 | 1005.8 |
| 20260509030952 | 16 | 211 | 11.3 | 14.5 | 0.00 | 0.00 | 0.00 | 72 | 1005.9 |
| 20260509030450 | 17 | 197 | 8.0 | 12.9 | 0.00 | 0.00 | 0.00 | 70 | 1005.8 |
| 20260509025947 | 17 | 201 | 8.0 | 11.3 | 0.00 | 0.00 | 0.00 | 71 | 1006.0 |
| 20260509025442 | 17 | 248 | 1.6 | 4.8 | 0.00 | 0.00 | 0.00 | 70 | 1006.3 |
| 20260509024938 | 17 | 210 | 8.0 | 11.3 | 0.00 | 0.00 | 0.00 | 70 | 1005.9 |